Location: Bannatyne
(13.0833°N, 59.5333°W)
Time: 15:28:40
(UTC+00:00)

Transit 4A - Pass Details

Date: 22 January 2021
Orbit: 866 x 978 km, 66.8° (Epoch: 05 March)

Event Time Altitude Azimuth Distance (km) Brightness Sun altitude
Exits shadow 09:19:02 - 344° (NNW) 3,302 10.5 -16.1°
Reaches altitude 10° 09:20:57 10° 346° (NNW) 2,586 9.9 -15.7°
Maximum altitude 09:26:54 68° 69° (ENE) 951 8.1 -14.3°
Drops below altitude 10° 09:32:41 10° 152° (SSE) 2,521 10.9 -12.9°
Sets 09:35:09 0° 154° (SSE) 3,449 11.6 -12.4°
